Saranac Lake, NY

10:13 AM EDT on May 26, 2017 (GMT -0400)
Adirondack Regional

Weather History for KSLK - July, 2013

Change the Weather History Date:

Tuesday, July 23, 2013

  Actual Average Record
Temperature  
Mean Temperature 71 °F 63 °F  
Max Temperature 80 °F 76 °F 91 °F (1955)
Min Temperature 62 °F 51 °F 37 °F (1977)
Degree Days  
Heating Degree Days 0 3  
Month to date heating degree days 69  
Since 1 June heating degree days 253  
Since 1 July heating degree days 69  
Cooling Degree Days 6 1  
Month to date cooling degree days 100 38  
Year to date cooling degree days 146 67  
Since 1 June cooling degree days 136 64  
Growing Degree Days 20 (Base 50)    
Moisture  
Dew Point 62 °F    
Average Humidity 77    
Maximum Humidity 100    
Minimum Humidity 54    
Precipitation  
Precipitation 0.04 in 0.14 in 1.22 in (1990)
Month to date precipitation 4.87 3.11  
Year to date precipitation 25.15 19.31  
Sea Level Pressure  
Sea Level Pressure 29.67 in    
Wind  
Wind Speed 3 mph (WSW)    
Max Wind Speed 12 mph    
Max Gust Speed 17 mph    
Visibility 8 miles    
Events Rain    
T = Trace of Precipitation, MM = Missing Value Source: NWS Daily Summary

Daily Weather History Graph

Daily Weather History Graph

Search for Another Location

Airport or City:

Trip Planner

Search our weather history database for the weather conditions in past years. The results will help you decide how hot, cold, wet, or windy it might be!

Date:

Astronomy

Jul. 23, 2013 Rise Set
Actual Time 5:34 AM EDT 8:31 PM EDT
Civil Twilight 5:00 AM EDT 9:05 PM EDT
Nautical Twilight 4:16 AM EDT 9:49 PM EDT
Astronomical Twilight 3:24 AM EDT 10:40 PM EDT
Moon 8:51 PM EDT (7/23) 6:44 AM EDT (7/23)
Length of Visible Light 16h 05m
Length of Day
14h 57m
Full, 99% of the Moon is Illuminated
Jul 23
Full
Jul 29
Last Quarter
Aug 6
New
Aug 14
First Quarter
Aug 20
Full

Hourly Weather History & Observations

Time (EDT) Temp. Dew Point Humidity Pressure Visibility Wind Dir Wind Speed Gust Speed Precip Events Conditions
12:51 AM 64.0 °F 63.0 °F 96% 29.82 in 9.0 mi Calm Calm - N/A   Clear
1:51 AM 64.0 °F 63.0 °F 96% 29.80 in 9.0 mi Calm Calm - N/A   Overcast
2:51 AM 63.0 °F 62.1 °F 97% 29.77 in 7.0 mi WNW 3.5 mph - N/A   Mostly Cloudy
3:51 AM 63.0 °F 62.1 °F 97% 29.75 in 5.0 mi Calm Calm - N/A   Mostly Cloudy
4:51 AM 62.1 °F 62.1 °F 100% 29.73 in 5.0 mi Calm Calm - N/A   Mostly Cloudy
5:51 AM 62.1 °F 61.0 °F 96% 29.73 in 5.0 mi Calm Calm - N/A   Overcast
6:49 AM 62.6 °F 62.6 °F 100% 29.75 in 2.5 mi Calm Calm - 0.01 in Rain Light Rain
6:51 AM 63.0 °F 62.1 °F 97% 29.73 in 2.5 mi Calm Calm - 0.01 in Rain Light Rain
7:08 AM 62.6 °F 62.6 °F 100% 29.75 in 3.0 mi Calm Calm - 0.01 in Rain Light Rain
7:51 AM 64.0 °F 63.0 °F 96% 29.72 in 3.0 mi Calm Calm - 0.03 in Rain Light Rain
8:51 AM 64.9 °F 64.0 °F 97% 29.71 in 6.0 mi ENE 3.5 mph - 0.00 in   Overcast
9:51 AM 64.9 °F 63.0 °F 93% 29.69 in 7.0 mi NE 3.5 mph - N/A   Mostly Cloudy
10:00 AM 64.4 °F 64.4 °F 100% 29.70 in 7.0 mi ENE 3.5 mph - N/A   Overcast
10:51 AM 66.9 °F 63.0 °F 87% 29.68 in 10.0 mi Calm Calm - N/A   Scattered Clouds
11:51 AM 71.1 °F 61.0 °F 70% 29.67 in 10.0 mi ENE 4.6 mph - N/A   Clear
12:51 PM 73.9 °F 59.0 °F 59% 29.65 in 10.0 mi Calm Calm - N/A   Clear
1:51 PM 75.0 °F 60.1 °F 60% 29.63 in 10.0 mi Variable 3.5 mph - N/A   Mostly Cloudy
2:51 PM 77.0 °F 61.0 °F 58% 29.60 in 10.0 mi Variable 3.5 mph - N/A   Clear
3:51 PM 75.9 °F 61.0 °F 60% 29.60 in 10.0 mi WSW 6.9 mph - N/A   Scattered Clouds
4:51 PM 79.0 °F 61.0 °F 54% 29.58 in 10.0 mi SW 6.9 mph - N/A   Mostly Cloudy
5:51 PM 77.0 °F 62.1 °F 60% 29.58 in 10.0 mi WSW 9.2 mph - N/A   Partly Cloudy
6:51 PM 75.9 °F 62.1 °F 62% 29.58 in 10.0 mi West 8.1 mph - N/A   Partly Cloudy
7:51 PM 72.0 °F 59.0 °F 64% 29.59 in 10.0 mi WSW 6.9 mph - N/A   Clear
8:51 PM 69.1 °F 57.9 °F 68% 29.60 in 10.0 mi WSW 4.6 mph - N/A   Clear
9:51 PM 68.0 °F 59.0 °F 73% 29.61 in 10.0 mi WSW 3.5 mph - N/A   Mostly Cloudy
10:51 PM 64.9 °F 60.1 °F 84% 29.61 in 10.0 mi SW 5.8 mph - N/A   Partly Cloudy
11:38 PM 64.4 °F 60.8 °F 88% 29.63 in 10.0 mi WSW 4.6 mph - N/A   Mostly Cloudy
11:51 PM 66.0 °F 60.1 °F 81% 29.60 in 10.0 mi WSW 3.5 mph - N/A   Overcast